Regional Weather Roundup
Issued by NWS Sterling, VA

Home | Current Version | Previous Version | Graphics & Text | Print | Product List | Glossary On
Versions: 1 2 3 4 5 6 7 8 9 10 11 12 13 14 15 16 17 18 19 20 21 22 23 24 25 26 27 28 29 30 31 32 33 34 35 36 37 38 39 40 41 42 43 44 45 46 47 48 49 50
000
ASUS41 KLWX 010710
RWRLWX

REGIONAL WEATHER ROUNDUP
NATIONAL WEATHER SERVICE BALTIMORE MD/WASHINGTON DC
300 AM EDT MON JUN 01 2015

Note: "FAIR" indicates few or no clouds below 12,000 feet
with no significant weather and/or obstructions to visibility.
 TC=TEMPERATURE CELSIUS

 * =Non NWS site. Station does not report precipitation (e.g. rain,
    snow, etc.), thunder, or fog.

DCZ001-MDZ009-015-VAZ040>042-051-053>054-010800-
WASHINGTON METRO

CITY           SKY/WX    TMP DP  RH WIND       PRES   REMARKS
WASHINGTON NAT MOCLDY    76  68  76 S12       30.00S
DULLES         CLOUDY    74  70  87 S10       30.00R
ANDREWS AFB    MOCLDY    73  68  83 S12       30.01R
FT BELVOIR     MOCLDY    74  68  82 VRB5      30.00S
QUANTICO       MOCLDY    71  65  81 SW10      30.01F
COLLEGE PARK*  MOCLDY    72  72 100 CALM      30.00F
LEESBURG*      MOCLDY    73  70  88 SW8       30.01R
MANASSAS*      CLOUDY    73  66  78 S5        30.00S
GAITHERSBURG*  MOCLDY    70  66  88 E3        30.05S

$$

MDZ006>007-011-014-010800-
BALTIMORE METRO

CITY           SKY/WX    TMP DP  RH WIND       PRES   REMARKS
BWI AIRPORT    LGT RAIN  72  69  90 N8        30.01R
MD SCIENCE CTR   N/A     74  68  81 MISG      30.02R
MARTIN STATE   RAIN      70  70 100 NW7       30.03R
ANNAPOLIS      CLOUDY    74  68  81 S6        29.99S
FORT MEADE*    CLOUDY    70  68  94 CALM      30.03S

$$

MDZ012-015-019>023-010800-
MARYLAND EASTERN SHORE

CITY           SKY/WX    TMP DP  RH WIND       PRES   REMARKS
OCEAN CITY     PTCLDY    70  67  90 SW13      30.05F
SALISBURY      PTCLDY    70  67  90 S7        30.04F
BAY BRIDGE AP*   N/A    N/A N/A N/A S10       30.00S
CAMBRIDGE*     CLOUDY    77  68  73 S7        30.02S
EASTON*        CLOUDY    77  70  80 SW13      30.05S

$$

MDZ017>025-010800-
SOUTHERN MARYLAND

CITY           SKY/WX    TMP DP  RH WIND       PRES   REMARKS
PATUXENT RIVER CLOUDY    75  66  73 S10G17    30.01S
ST INIGOES       N/A     75  67  76 S9        30.02S
LEONARDTOWN*   MOCLDY    73  64  73 S9        30.03S

$$

MDZ003>005-010800-
NORTH CENTRAL MARYLAND

CITY           SKY/WX    TMP DP  RH WIND       PRES   REMARKS
FREDERICK*     MOCLDY    68  68 100 CALM      30.03S
HAGERSTOWN APT CLOUDY    69  65  86 CALM      30.00S
WESTMINSTER*   MOCLDY    70  66  88 CALM      30.01S

$$

MDZ501>502-010800-
WESTERN MARYLAND

CITY           SKY/WX    TMP DP  RH WIND       PRES   REMARKS
OAKLAND*       MOCLDY    61 N/A N/A SW6       30.09S
CUMBERLAND*    CLOUDY    64  64 100 CALM      30.05S VSB<1/4

$$

VAZ025>031-010800-
SHENANDOAH VALLEY

CITY           SKY/WX    TMP DP  RH WIND       PRES   REMARKS
WINCHESTER*    MOCLDY    72  64  78 SW7       30.01R
FRONT ROYAL*   FAIR      68  64  88 S5        30.01R
LURAY*         FAIR      70  68  94 S3        30.03R
NEW MARKET*    FAIR      66  64  94 CALM      30.01S
STAUNTON*      PTCLDY    67  65  94 CALM      30.06S FOG
WAYNESBORO*    FAIR      63  63 100 CALM      30.06S

$$

WVZ021-048>050-054>055-010800-
EASTERN WEST VIRGINIA PANHANDLE

CITY           SKY/WX    TMP DP  RH WIND       PRES   REMARKS
MARTINSBURG    MOCLDY    68  66  93 E3        30.01R FOG
PETERSBURG*    MOCLDY    64  62  94 CALM      30.04S FOG

$$

VAZ036>039-050-010800-
CENTRAL FOOTHILLS

CITY           SKY/WX    TMP DP  RH WIND       PRES   REMARKS
CHARLOTTESVILL PTCLDY    67  65  93 S6        30.02F
CULPEPER*      CLOUDY    69  65  89 CALM      30.01F
ORANGE*        MOCLDY    68  66  94 CALM      30.03S
GORDONSVILLE*  FAIR      66  66  99 W5        30.02S
WARRENTON*     LGT RAIN  72  69  91 S3        30.00F

$$

VAZ055>057-010800-
NORTH AND CENTRAL PIEDMONT

CITY           SKY/WX    TMP DP  RH WIND       PRES   REMARKS
FREDERICKSBRG* LGT RAIN  73  72  98 CALM      30.01F
STAFFORD*      RAIN      70  67  89 SW6       30.05S

$$

NCZ024-NYZ072-PAZ021-071-VAZ022-071-010800-
OTHER REGIONAL OBSERVATIONS

CITY           SKY/WX    TMP DP  RH WIND       PRES   REMARKS
NEW YORK CITY  LGT RAIN  57  54  89 NE9       30.12F
PHILADELPHIA   TSTM      71  67  87 SW6       30.06R FOG
PITTSBURGH     CLOUDY    51  48  89 NW10      30.07S
ROANOKE        MOCLDY    68  64  87 CALM      30.08S
RICHMOND       PTCLDY    73  66  78 S8        30.03F
RALEIGH        MOCLDY    73  66  78 SW10      30.08R

$$

ANZ530>537-010800-
MARINE OBSERVATIONS

STATION/POSITION TIME  TEMP    WIND        PRES
                       AIR SEA DIR/SP/G
                 (UTC) (F)     (DEG/KT/KT) (MB)
THOMAS PT LIGHT  0700   73 72  180/ 14/ 15 1016.3R
BALT KEY BRIDGE  0600           20/  4/  5   N/A
COVE POINT       0600          210/ 15/ 19   N/A
LEWISETTA        0612   75                   N/A
SOLOMONS ISLAND  0630      74                N/A
PINEY POINT      0600          210/ 13/ 15   N/A

$$



USA.gov is the U.S. government's official web portal to all federal, state and local government web resources and services.